COSMOS 1536 (14699 NORAD) Tracking and Keplerian Element Data

This shows tracking and keplerian element data for the satellite.

Feedback or suggestion? Click here.




ElementValue
Catalog14699
NameCOSMOS 1536
Epoch Orbit15332
Epoch Day12.91006691
Epoch Year2024
RAAN161.6521
Inclination82.5508
Eccentricity0.0019533
Argument of Perigee134.7577
Mean Anonmoly225.5247
Mean Motion15.10920092
Decay Rate5.889E-05
L11 14699U 84013A 24012.91006691 .00005889 00000+0 35020-3 0 9998
L22 14699 82.5508 161.6521 0019533 134.7577 225.5247 15.10920092153326



Live tracking and technical data element details for COSMOS 1536 (NORAD 14699). COSMOS 1536 can be tracked NOW for your location showing map with azimuth and elevation plus other details from your city location.







IsCatalogInMostPopularTable: catalog: 14699, numindb: 328
Update: records affected: 1



GetName: 14699 COSMOS 1536

Hit Count: updated at: Sun, 14 Apr 2024 23:57:58 GMT